Ashgabat, Turkmenistan

10:10 AM +05 on December 16, 2019 (GMT +0500)
Ashgabat

Weather History for UTAA - November, 2019

Change the Weather History Date:

Wednesday, November 20, 2019

  Actual Average Record
Temperature  
Mean Temperature 48 °F -  
Max Temperature 52 °F 54 °F - ()
Min Temperature 43 °F 35 °F - ()
Degree Days  
Heating Degree Days 18    
Moisture  
Dew Point 34 °F    
Average Humidity 58    
Maximum Humidity 76    
Minimum Humidity 30    
Precipitation  
Precipitation 0.00 in 0.03 in - ()
Sea Level Pressure  
Sea Level Pressure 30.15 in    
Wind  
Wind Speed 4 mph ()    
Max Wind Speed 9 mph    
Max Gust Speed -    
Visibility 6.1 miles    
Events Rain    
T = Trace of Precipitation, MM = Missing Value Source: Averaged Metar Reports

Daily Weather History Graph

Daily Weather History Graph

Search for Another Location

Airport or City:

Astronomy

Nov. 20, 2019 Rise Set
Actual Time 7:51 AM +05 5:52 PM +05
Civil Twilight 7:23 AM +05 6:20 PM +05
Nautical Twilight 6:51 AM +05 6:52 PM +05
Astronomical Twilight 6:20 AM +05 7:23 PM +05
Moon 12:18 AM +05 (11/20) 2:24 PM +05 (11/20)
Length of Visible Light 10h 56m
Length of Day
10h 00m
Last Quarter, 45% of the Moon is Illuminated
Nov 20
Last Quarter
Nov 26
New
Dec 4
First Quarter
Dec 12
Full
Dec 19
Last Quarter

Hourly Weather History & Observations

Time (+05) Temp. Windchill Dew Point Humidity Pressure Visibility Wind Dir Wind Speed Gust Speed Precip Events Conditions
12:00 AM 48.2 °F - 37.4 °F 66% 30.18 in 6.2 mi West 4.6 mph - N/A   Overcast
1:00 AM 46.4 °F 42.9 °F 35.6 °F 66% 30.18 in 6.2 mi West 6.9 mph - N/A   Mostly Cloudy
2:00 AM 47 °F - 35 °F 53% 30.20 in 6 mi West 4.5 mph - -   Partly Cloudy
2:00 AM 44.6 °F 42.2 °F 35.6 °F 71% 30.15 in 6.2 mi West 4.6 mph - N/A   Mostly Cloudy
3:00 AM 44.6 °F 42.2 °F 35.6 °F 71% 30.15 in 5.6 mi West 4.6 mph - N/A   Scattered Clouds
4:00 AM 42.8 °F 38.6 °F 35.6 °F 76% 30.15 in 5.6 mi West 6.9 mph - N/A   Scattered Clouds
5:00 AM 45 °F - 34 °F 56% 30.18 in 6 mi West 4.5 mph - -   Partly Cloudy
5:00 AM 44.6 °F 42.2 °F 35.6 °F 71% 30.12 in 6.2 mi West 4.6 mph - N/A   Mostly Cloudy
6:00 AM 44.6 °F - 33.8 °F 66% 30.12 in 6.2 mi WNW 2.3 mph - N/A   Mostly Cloudy
7:00 AM 44.6 °F - 33.8 °F 66% 30.15 in 6.2 mi West 2.3 mph - N/A   Mostly Cloudy
8:00 AM 46 °F - 35 °F 55% 30.19 in 6 mi West 6.7 mph - -   Partly Cloudy
8:00 AM 44.6 °F 40.7 °F 33.8 °F 66% 30.15 in 6.2 mi West 6.9 mph - N/A   Mostly Cloudy
9:00 AM 46.4 °F 42.9 °F 32.0 °F 57% 30.15 in 6.2 mi West 6.9 mph - N/A   Overcast
10:00 AM 48.2 °F - 30.2 °F 50% 30.18 in 6.2 mi West 9.2 mph - N/A   Overcast
11:00 AM 49 °F - 28 °F 30% 30.22 in 6 mi West 4.5 mph - -   Overcast
12:00 PM 50.0 °F - 28.4 °F 43% 30.15 in 6.2 mi West 6.9 mph - N/A   Overcast
1:00 PM 50.0 °F - 28.4 °F 43% 30.12 in 6.2 mi WNW 4.6 mph - N/A   Overcast
2:00 PM 51.8 °F - 26.6 °F 38% 30.09 in 6.2 mi WNW 4.6 mph - N/A   Overcast
3:00 PM 51.8 °F - 26.6 °F 38% 30.09 in 6.2 mi West 4.6 mph - N/A   Overcast
4:00 PM 51.8 °F - 32.0 °F 47% 30.09 in 6.2 mi Variable 2.3 mph - N/A   Overcast
5:00 PM 51.8 °F - 33.8 °F 50% 30.12 in 6.2 mi Variable 2.3 mph - N/A   Overcast
6:00 PM 50.0 °F - 33.8 °F 54% 30.12 in 6.2 mi NW 2.3 mph - N/A   Overcast
7:00 PM 50.0 °F - 33.8 °F 54% 30.12 in 6.2 mi WNW 2.3 mph - N/A Rain Light Rain Showers
8:00 PM 50 °F - 35 °F 46% 30.19 in 6 mi West 4.5 mph - - Rain Light Rain Showers
8:00 PM 50.0 °F - 37.4 °F 62% 30.15 in 6.2 mi West 6.9 mph - N/A Rain Light Rain Showers
9:00 PM 48.2 °F - 39.2 °F 71% 30.15 in 5.6 mi WNW 4.6 mph - N/A Rain Light Rain Showers
10:00 PM 48.2 °F - 41.0 °F 76% 30.15 in 5.6 mi WNW 4.6 mph - N/A Rain Light Rain Showers
11:00 PM 47 °F - 40 °F 70% 30.21 in 6 mi WNW 6.7 mph - - Rain Light Rain Showers